Location: Unspecified
(41.7080°N, 0.0000°E)
Time: 05:14:22
(UTC+00:00)

NOAA 16 DEB - Visible Passes

Search period start: 04 April 2026 00:00
Search period end: 14 April 2026 00:00
Orbit: 621 x 668 km, 98.9° (Epoch: 28 March)

Date Brightness Start Highest point End Pass type
(mag) Time Alt. Az. Time Alt. Az. Time Alt. Az.
7 Apr ? 22:34:06 10° N 22:34:16 11° N 22:34:16 11° N visible
8 Apr ? 22:58:45 10° N 22:59:07 12° N 22:59:07 12° N visible
9 Apr ? 23:23:40 10° NNW 23:23:55 11° NNW 23:23:55 11° NNW visible
10 Apr ? 22:10:50 10° NNE 22:11:02 11° NNE 22:11:02 11° NNE visible
11 Apr ? 22:35:10 10° N 22:35:47 14° N 22:35:47 14° N visible
12 Apr ? 22:59:41 10° N 23:00:30 15° N 23:00:30 15° N visible
13 Apr ? 23:24:28 10° NNW 23:25:11 13° NNW 23:25:11 13° NNW visible
